Location: Brantley
(31.5822°N, 86.2569°W)
Time: 16:54:32
(UTC+00:00)

Injun/Solrad 3 - Pass Details

Date: 16 February 2026
Orbit: 871 x 985 km, 66.8° (Epoch: 11 March)

Event Time Altitude Azimuth Distance (km) Brightness Sun altitude
Rises 02:28:04 0° 339° (NNW) 3,589 11.3 -38.0°
Reaches altitude 10° 02:30:37 10° 343° (NNW) 2,659 10.5 -38.5°
Enters shadow 02:31:22 14° 345° (NNW) 2,398 10.2 -38.7°
Maximum altitude 02:36:45 58° 63° (ENE) 1,106 - -39.8°
Drops below altitude 10° 02:42:59 10° 141° (SE) 2,712 - -41.1°
Sets 02:45:37 0° 145° (SE) 3,665 - -41.7°
